Location: ??????
(56.0120°N, 39.1740°E)
Time: 09:52:55
(UTC+00:00)

Ariane Rocket - Pass Details

Date: 14 April 2026
Orbit: 755 x 763 km, 98.4° (Epoch: 19 May)

Event Time Altitude Azimuth Distance (km) Brightness Sun altitude
Exits shadow 19:29:40 23° 206° (SSW) 1,577 4.3 -20.2°
Maximum altitude 19:32:21 41° 263° (W) 1,095 3.9 -20.4°
Drops below altitude 10° 19:37:07 10° 333° (NNW) 2,298 6.7 -20.7°
Sets 19:39:34 0° 341° (NNW) 3,228 7.8 -20.9°
